Weather History for Hollywood, FL

Change the Weather History Date:

Tuesday, December 11, 2012

  Actual Average (KFLL) Record (KFLL)
Temperature  
Mean Temperature 78 °F 72 °F  
Max Temperature 86 °F 79 °F 87 °F (1997)
Min Temperature 70 °F 65 °F 30 °F (1962)
Degree Days  
Heating Degree Days 0 1  
Month to date heating degree days 6  
Since 1 July heating degree days 8  
Cooling Degree Days 13 8  
Month to date cooling degree days 89  
Year to date cooling degree days 4602  
Growing Degree Days 28 (Base 50)    
Moisture  
Dew Point 72 °F    
Average Humidity 85    
Maximum Humidity 97    
Minimum Humidity 65    
Precipitation  
Precipitation 0.37 in 0.09 in 2.41 in (1978)
Month to date precipitation 0.94  
Year to date precipitation 60.66  
Snow  
Snow 0.00 in - - ()
Month to date snowfall  
Since 1 July snowfall  
Snow Depth -    
Sea Level Pressure  
Sea Level Pressure 30.00 in    
Wind  
Wind Speed 7 mph (South)    
Max Wind Speed 14 mph    
Max Gust Speed 29 mph    
Visibility 7 miles    
Events Fog , Rain , Thunderstorm    
T = Trace of Precipitation, MM = Missing Value Source: NWS Daily Summary

Daily Weather History Graph

Daily Weather History Graph

Search for Another Location

Airport:

Trip Planner

Search our weather history database for the weather conditions in past years. The results will help you decide how hot, cold, wet, or windy it might be!

Date:

Astronomy

Dec. 11, 2012 Rise Set
Actual Time 6:58 AM EST 5:30 PM EST
Civil Twilight 6:33 AM EST 5:55 PM EST
Nautical Twilight 6:04 AM EST 6:24 PM EST
Astronomical Twilight 5:36 AM EST 6:52 PM EST
Moon 4:56 AM EST (12/11) 4:04 PM EST (12/11)
Length of Visible Light 11h 22m
Length of Day
10h 32m
Waning Crescent, 4% of the Moon is Illuminated
Dec 11
Waning Crescent
Dec 13
New
Dec 20
First Quarter
Dec 28
Full
Jan 4
Last Quarter

Hourly Weather History & Observations

Time (EST) Temp. Heat Index Dew Point Humidity Pressure Visibility Wind Dir Wind Speed Gust Speed Precip Events Conditions
12:53 AM 77.0 °F - 73.9 °F 90% 29.98 in 7.0 mi SSE 6.9 mph - N/A   Scattered Clouds
1:17 AM 77.0 °F - 73.4 °F 89% 29.97 in 7.0 mi SSE 9.2 mph - N/A   Mostly Cloudy
1:48 AM 77.0 °F - 73.4 °F 89% 29.96 in 7.0 mi SSE 10.4 mph - N/A   Scattered Clouds
1:53 AM 77.0 °F - 73.0 °F 88% 29.97 in 7.0 mi SSE 10.4 mph - N/A   Scattered Clouds
2:47 AM 77.0 °F - 73.4 °F 89% 29.98 in 7.0 mi South 3.5 mph - N/A Thunderstorm Mostly Cloudy
2:48 AM 77.0 °F - 73.0 °F 88% 29.98 in 7.0 mi South 3.5 mph - N/A Thunderstorm Mostly Cloudy
2:56 AM 77.0 °F - 73.4 °F 89% 29.97 in 7.0 mi South 5.8 mph - N/A Thunderstorm Mostly Cloudy
3:22 AM 73.4 °F - 69.8 °F 88% 29.99 in 1.2 mi SW 13.8 mph 28.8 mph 0.08 in Rain , Thunderstorm Light Rain
3:24 AM 71.6 °F - 68.0 °F 88% 29.99 in 0.5 mi SW 11.5 mph 28.8 mph 0.15 in Fog , Rain , Thunderstorm Heavy Rain
3:34 AM 71.6 °F - 69.8 °F 94% 29.99 in 1.0 mi SW 8.1 mph - 0.21 in Rain , Thunderstorm Thunderstorms and Rain
3:41 AM 71.6 °F - 69.8 °F 94% 29.99 in 2.0 mi WSW 6.9 mph - 0.21 in Rain , Thunderstorm Light Rain
3:49 AM 71.6 °F - 69.8 °F 94% 29.99 in 6.0 mi West 8.1 mph - 0.22 in Rain , Thunderstorm Light Rain
3:53 AM 71.1 °F - 69.1 °F 93% 29.99 in 1.5 mi WSW 6.9 mph - 0.26 in Rain , Thunderstorm Rain
3:59 AM 71.6 °F - 69.8 °F 94% 29.99 in 1.0 mi WSW 8.1 mph - 0.02 in Rain Rain
4:03 AM 71.6 °F - 69.8 °F 94% 29.99 in 2.5 mi WSW 6.9 mph - 0.02 in Rain Light Rain
4:09 AM 71.6 °F - 69.8 °F 94% 29.98 in 0.8 mi SW 4.6 mph - 0.09 in Rain Heavy Rain
4:19 AM 71.6 °F - 69.8 °F 94% 29.97 in 1.8 mi South 3.5 mph - 0.11 in Rain Light Rain
4:26 AM 71.6 °F - 69.8 °F 94% 29.96 in 10.0 mi Calm Calm - 0.11 in   Mostly Cloudy
4:53 AM 70.0 °F - 69.1 °F 97% 29.97 in 10.0 mi Calm Calm - 0.11 in   Clear
5:53 AM 71.1 °F - 69.1 °F 93% 29.99 in 10.0 mi SE 4.6 mph - N/A   Partly Cloudy
6:53 AM 71.1 °F - 70.0 °F 96% 29.98 in 10.0 mi South 4.6 mph - N/A   Clear
7:53 AM 73.0 °F - 72.0 °F 96% 30.02 in 8.0 mi SSW 3.5 mph - N/A   Clear
8:53 AM 77.0 °F - 75.0 °F 94% 30.02 in 7.0 mi South 5.8 mph - N/A   Clear
9:53 AM 81.0 °F 86.7 °F 75.0 °F 82% 30.04 in 7.0 mi SSW 6.9 mph - N/A   Mostly Cloudy
10:25 AM 82.4 °F 89.5 °F 75.2 °F 79% 30.05 in 7.0 mi South 6.9 mph - N/A   Mostly Cloudy
10:36 AM 82.4 °F 89.5 °F 75.2 °F 79% 30.04 in 7.0 mi South 9.2 mph - N/A   Mostly Cloudy
10:53 AM 82.0 °F 87.9 °F 73.9 °F 76% 30.05 in 7.0 mi South 5.8 mph - N/A   Mostly Cloudy
11:16 AM 82.4 °F 88.2 °F 73.4 °F 74% 30.04 in 8.0 mi SSE 8.1 mph - N/A   Mostly Cloudy
11:26 AM 82.4 °F 88.2 °F 73.4 °F 74% 30.04 in 7.0 mi South 5.8 mph - N/A   Mostly Cloudy
11:53 AM 82.9 °F 88.8 °F 73.0 °F 72% 30.03 in - South 8.1 mph - N/A   Scattered Clouds
12:50 PM 84.2 °F 90.9 °F 73.4 °F 70% 29.99 in 8.0 mi South 11.5 mph 17.3 mph 0.00 in   Mostly Cloudy
12:53 PM 84.9 °F 93.3 °F 75.0 °F 72% 29.99 in 8.0 mi SSE 12.7 mph - 0.00 in   Mostly Cloudy
1:14 PM 86.0 °F 93.4 °F 73.4 °F 66% 29.98 in 8.0 mi South 8.1 mph - N/A   Scattered Clouds
1:53 PM 84.9 °F 91.4 °F 73.0 °F 67% 29.97 in 8.0 mi South 10.4 mph - N/A   Scattered Clouds
2:53 PM 84.9 °F 90.7 °F 72.0 °F 65% 29.97 in 10.0 mi SSE 9.2 mph - N/A   Partly Cloudy
3:53 PM 84.0 °F 89.6 °F 72.0 °F 67% 29.97 in 10.0 mi SSE 11.5 mph - N/A   Clear
4:53 PM 81.0 °F 85.2 °F 72.0 °F 74% 29.97 in 10.0 mi South 8.1 mph - N/A   Clear
5:53 PM 79.0 °F - 73.9 °F 84% 29.98 in 10.0 mi SSE 6.9 mph - N/A   Mostly Cloudy
6:39 PM 78.8 °F - 73.4 °F 83% 29.99 in 10.0 mi SSE 10.4 mph - N/A   Mostly Cloudy
6:46 PM 78.8 °F - 73.4 °F 83% 29.99 in 10.0 mi SSE 9.2 mph - N/A   Mostly Cloudy
6:53 PM 78.1 °F - 73.9 °F 87% 29.99 in 10.0 mi SSE 9.2 mph - N/A   Overcast
7:26 PM 78.8 °F - 73.4 °F 83% 30.00 in 10.0 mi SSE 9.2 mph - N/A   Scattered Clouds
7:53 PM 78.1 °F - 73.9 °F 87% 30.01 in 10.0 mi SSE 8.1 mph - N/A   Clear
8:53 PM 78.1 °F - 73.9 °F 87% 30.04 in 10.0 mi SSE 4.6 mph - N/A   Partly Cloudy
9:53 PM 78.1 °F - 73.9 °F 87% 30.07 in 10.0 mi Calm Calm - N/A   Partly Cloudy
10:26 PM 78.8 °F - 73.4 °F 83% 30.07 in 10.0 mi Calm Calm - N/A   Mostly Cloudy
10:53 PM 77.0 °F - 73.9 °F 90% 30.07 in 10.0 mi SE 3.5 mph - N/A   Partly Cloudy